When you browse on this site, cookies collect data to enhance your experience and personalize the content and advertising you see.
Visit our Privacy Policy to learn more. By continuing to use the site, you agree to this use of cookies and data.
  • In Lithuania
  • List of Countries
  • For 7 days
  • Water Temperature
  • Satellite Maps
  • Weather Map
  • Weather Widgets
  • user-avatar
    Login

    Hourly Weather Edmundston

    Today, 16 July, Tuesday

    Time Temperature Precipitation Wind Pressure Humidity
    00:00 +14°C° 0 mm 1 mps 699 mmHg 86%
    01:00 +13°C° 0 mm 1 mps 699 mmHg 87%
    02:00 +13°C° 0 mm 1 mps 699 mmHg 88%
    03:00 +13°C° 0 mm 1 mps 699 mmHg 88%
    04:00 +13°C° 0 mm 1 mps 699 mmHg 89%
    05:00 +14°C° 0 mm 1 mps 699 mmHg 86%
    06:00 +16°C° 0 mm 1 mps 699 mmHg 84%
    07:00 +18°C° 0 mm 1 mps 700 mmHg 81%
    08:00 +19°C° 0.8 mm 1 mps 700 mmHg 77%
    09:00 +21°C° 0.8 mm 1 mps 699 mmHg 72%
    10:00 +22°C° 0.8 mm 1 mps 699 mmHg 67%
    11:00 +22°C° 0.4 mm 1 mps 699 mmHg 66%
    12:00 +23°C° 0.4 mm 1 mps 699 mmHg 64%
    13:00 +23°C° 0.4 mm 1 mps 699 mmHg 63%
    14:00 +23°C° 0.5 mm 1 mps 698 mmHg 64%
    15:00 +23°C° 0.5 mm 1 mps 698 mmHg 66%
    16:00 +23°C° 0.5 mm 1 mps 697 mmHg 68%
    17:00 +21°C° 0.1 mm 1 mps 697 mmHg 73%
    18:00 +19°C° 0.1 mm 2 mps 697 mmHg 77%
    19:00 +18°C° 0.1 mm 2 mps 697 mmHg 82%
    20:00 +17°C° 0.1 mm 2 mps 696 mmHg 85%
    21:00 +16°C° 0.1 mm 2 mps 696 mmHg 87%
    22:00 +15°C° 0.1 mm 2 mps 696 mmHg 90%
    23:00 +14°C° 0 mm 2 mps 696 mmHg 90%

    Tomorrow, 17 July, Wednesday

    Time Temperature Precipitation Wind Pressure Humidity
    00:00 +14°C° 0 mm 1 mps 695 mmHg 90%
    01:00 +13°C° 0 mm 1 mps 695 mmHg 91%
    02:00 +13°C° 0 mm 1 mps 694 mmHg 91%
    03:00 +13°C° 0 mm 2 mps 694 mmHg 92%
    04:00 +12°C° 0 mm 2 mps 694 mmHg 93%
    05:00 +14°C° 0 mm 2 mps 694 mmHg 90%
    06:00 +15°C° 0 mm 2 mps 694 mmHg 87%
    07:00 +17°C° 0 mm 2 mps 694 mmHg 85%
    08:00 +18°C° 0 mm 3 mps 693 mmHg 81%
    09:00 +19°C° 0 mm 3 mps 693 mmHg 77%
    10:00 +20°C° 0 mm 4 mps 693 mmHg 73%
    11:00 +21°C° 0 mm 4 mps 692 mmHg 73%
    12:00 +21°C° 0 mm 5 mps 691 mmHg 73%
    13:00 +22°C° 0 mm 5 mps 691 mmHg 73%
    14:00 +21°C° 0.3 mm 5 mps 690 mmHg 76%
    15:00 +21°C° 0.3 mm 5 mps 689 mmHg 78%
    16:00 +21°C° 0.3 mm 5 mps 689 mmHg 80%
    17:00 +20°C° 1.1 mm 4 mps 688 mmHg 82%
    18:00 +19°C° 1.1 mm 4 mps 688 mmHg 83%
    19:00 +18°C° 1.1 mm 3 mps 688 mmHg 85%
    20:00 +17°C° 0.6 mm 3 mps 687 mmHg 88%
    21:00 +14°C° 0.6 mm 3 mps 687 mmHg 91%
    22:00 +13°C° 0.6 mm 3 mps 687 mmHg 94%
    23:00 +13°C° 1.4 mm 3 mps 687 mmHg 95%

    Day after tomorrow, 18 July, Thursday

    Time Temperature Precipitation Wind Pressure Humidity
    00:00 +14°C° 1.4 mm 2 mps 687 mmHg 96%
    01:00 +14°C° 1.4 mm 2 mps 687 mmHg 97%
    02:00 +13°C° 1.8 mm 2 mps 687 mmHg 97%
    03:00 +12°C° 1.8 mm 3 mps 686 mmHg 97%
    04:00 +12°C° 1.8 mm 4 mps 686 mmHg 97%
    05:00 +12°C° 2.7 mm 4 mps 686 mmHg 97%
    06:00 +12°C° 2.7 mm 4 mps 686 mmHg 97%
    07:00 +12°C° 2.7 mm 4 mps 686 mmHg 98%
    08:00 +13°C° 2.3 mm 4 mps 687 mmHg 97%
    09:00 +13°C° 2.3 mm 4 mps 687 mmHg 97%
    10:00 +13°C° 2.3 mm 4 mps 687 mmHg 97%
    11:00 +13°C° 2.6 mm 4 mps 687 mmHg 96%
    12:00 +14°C° 2.6 mm 4 mps 688 mmHg 95%
    13:00 +14°C° 2.6 mm 4 mps 688 mmHg 95%
    14:00 +14°C° 2 mm 4 mps 688 mmHg 94%
    15:00 +14°C° 2 mm 4 mps 689 mmHg 93%
    16:00 +15°C° 2 mm 5 mps 689 mmHg 93%
    17:00 +14°C° 1.4 mm 5 mps 689 mmHg 92%
    18:00 +14°C° 1.4 mm 5 mps 690 mmHg 91%
    19:00 +14°C° 1.4 mm 5 mps 690 mmHg 90%
    20:00 +13°C° 0.8 mm 5 mps 690 mmHg 92%
    21:00 +13°C° 0.8 mm 6 mps 691 mmHg 93%
    22:00 +11°C° 0.8 mm 6 mps 691 mmHg 94%
    23:00 +12°C° 0.1 mm 5 mps 692 mmHg 95%

    19 July, Friday

    Time Temperature Precipitation Wind Pressure Humidity
    00:00 +12°C° 0.1 mm 5 mps 692 mmHg 96%
    01:00 +11°C° 0.1 mm 4 mps 692 mmHg 96%
    02:00 +10°C° 0.1 mm 5 mps 693 mmHg 96%
    03:00 +10°C° 0.1 mm 5 mps 694 mmHg 96%
    04:00 +10°C° 0.1 mm 5 mps 694 mmHg 96%
    05:00 +12°C° 0 mm 4 mps 695 mmHg 95%
    06:00 +12°C° 0 mm 4 mps 695 mmHg 94%
    07:00 +13°C° 0 mm 4 mps 696 mmHg 93%
    08:00 +14°C° 0.1 mm 3 mps 696 mmHg 91%
    09:00 +16°C° 0.1 mm 3 mps 696 mmHg 89%
    10:00 +16°C° 0.1 mm 2 mps 697 mmHg 86%
    11:00 +18°C° 0.4 mm 2 mps 697 mmHg 79%
    12:00 +20°C° 0.4 mm 2 mps 697 mmHg 71%
    13:00 +21°C° 0.4 mm 2 mps 698 mmHg 63%
    14:00 +21°C° 0.3 mm 2 mps 698 mmHg 66%
    15:00 +21°C° 0.3 mm 2 mps 698 mmHg 68%
    16:00 +21°C° 0.3 mm 2 mps 698 mmHg 70%
    17:00 +20°C° 0.4 mm 2 mps 698 mmHg 72%
    18:00 +20°C° 0.4 mm 1 mps 698 mmHg 74%
    19:00 +16°C° 0.4 mm 0 mps 698 mmHg 76%
    20:00 +16°C° 0 mm 1 mps 698 mmHg 78%
    21:00 +15°C° 0 mm 1 mps 699 mmHg 79%
    22:00 +14°C° 0 mm 1 mps 699 mmHg 80%
    23:00 +14°C° 0 mm 1 mps 699 mmHg 82%

    20 July, Saturday

    Time Temperature Precipitation Wind Pressure Humidity
    00:00 +14°C° 0 mm 1 mps 699 mmHg 85%
    01:00 +13°C° 0 mm 2 mps 699 mmHg 87%
    02:00 +13°C° 0 mm 1 mps 700 mmHg 87%
    03:00 +13°C° 0 mm 1 mps 700 mmHg 88%
    04:00 +12°C° 0 mm 1 mps 700 mmHg 88%
    05:00 +14°C° 0 mm 1 mps 701 mmHg 87%
    06:00 +15°C° 0 mm 1 mps 701 mmHg 87%
    07:00 +16°C° 0 mm 1 mps 702 mmHg 86%
    08:00 +17°C° 0.1 mm 2 mps 702 mmHg 82%
    09:00 +19°C° 0.1 mm 2 mps 702 mmHg 78%
    10:00 +20°C° 0.1 mm 2 mps 702 mmHg 75%
    11:00 +22°C° 0.2 mm 1 mps 703 mmHg 69%
    12:00 +23°C° 0.2 mm 1 mps 703 mmHg 63%
    13:00 +24°C° 0.2 mm 1 mps 703 mmHg 58%
    14:00 +24°C° 0 mm 1 mps 703 mmHg 59%
    15:00 +24°C° 0 mm 1 mps 703 mmHg 60%
    16:00 +24°C° 0 mm 1 mps 703 mmHg 60%
    17:00 +23°C° 0 mm 1 mps 703 mmHg 66%
    18:00 +21°C° 0 mm 1 mps 703 mmHg 71%
    19:00 +19°C° 0 mm 2 mps 702 mmHg 76%
    20:00 +18°C° 0 mm 2 mps 702 mmHg 80%
    21:00 +17°C° 0 mm 2 mps 702 mmHg 83%
    22:00 +14°C° 0 mm 3 mps 702 mmHg 87%
    23:00 +14°C° 0 mm 3 mps 702 mmHg 87%

    21 July, Sunday

    Time Temperature Precipitation Wind Pressure Humidity
    00:00 +14°C° 0 mm 3 mps 702 mmHg 88%
    01:00 +13°C° 0 mm 3 mps 702 mmHg 89%
    02:00 +13°C° 0 mm 3 mps 702 mmHg 90%
    03:00 +13°C° 0 mm 3 mps 702 mmHg 90%
    04:00 +13°C° 0 mm 3 mps 702 mmHg 91%
    05:00 +14°C° 0 mm 4 mps 702 mmHg 88%
    06:00 +15°C° 0 mm 4 mps 702 mmHg 85%
    07:00 +17°C° 0 mm 5 mps 703 mmHg 83%
    08:00 +19°C° 0 mm 5 mps 703 mmHg 80%
    09:00 +20°C° 0 mm 5 mps 703 mmHg 78%
    10:00 +21°C° 0 mm 6 mps 703 mmHg 75%
    11:00 +22°C° 0 mm 6 mps 703 mmHg 74%
    12:00 +23°C° 0 mm 6 mps 702 mmHg 72%
    13:00 +24°C° 0 mm 6 mps 702 mmHg 71%
    14:00 +23°C° 0.1 mm 5 mps 702 mmHg 73%
    15:00 +23°C° 0.1 mm 5 mps 702 mmHg 74%
    16:00 +23°C° 0.1 mm 4 mps 701 mmHg 76%
    17:00 +22°C° 0.1 mm 3 mps 701 mmHg 79%
    18:00 +21°C° 0.1 mm 3 mps 701 mmHg 82%
    19:00 +20°C° 0.1 mm 2 mps 701 mmHg 85%
    20:00 +19°C° 0 mm 2 mps 701 mmHg 86%
    21:00 +18°C° 0 mm 2 mps 701 mmHg 87%
    22:00 +17°C° 0 mm 2 mps 701 mmHg 89%
    23:00 +17°C° 0 mm 2 mps 701 mmHg 89%
    Show more